Regional Weather Roundup
Issued by NWS Upton, NY

Current Version | Previous Version | Text Only | Print | Product List | Glossary On
Versions: 1 2 3 4 5 6 7 8 9 10 11 12 13 14 15 16 17 18 19 20 21 22 23 24 25 26 27 28 29 30 31 32 33 34 35 36 37 38 39 40 41 42 43 44 45 46 47 48 49 50
000
ASUS41 KOKX 050504
RWROKX

REGIONAL WEATHER ROUNDUP
NATIONAL WEATHER SERVICE NEW YORK NY
100 AM EDT SAT SEP 05 2015

NOTE: "FAIR" INDICATES FEW OR NO CLOUDS BELOW 12,000 FEET WITH NO
SIGNIFICANT WEATHER AND/OR OBSTRUCTIONS TO VISIBILITY.

NYZ071-072-176-178-NJZ106-104-050600-
NEW YORK CITY METRO AREA


CITY           SKY/WX    TMP DP  RH WIND       PRES   REMARKS
CENTRAL PARK   PTCLDY    73  62  68 E9        30.24S
LAGUARDIA APRT PTCLDY    71  62  73 E9        30.22R
KENNEDY INTL   PTCLDY    70  61  73 NE9       30.23R
NEWARK/LIBERTY PTCLDY    72  63  73 E7        30.21S
BRNX BOT. GARD   N/A     68  61  77 NE3       30.24R
TETERBORO      CLEAR     72  60  66 E9        30.21S
$$

NYZ177-179-078>081-050600-
LONG ISLAND NEW YORK

CITY           SKY/WX    TMP DP  RH WIND       PRES   REMARKS
FARMINGDALE    CLEAR     68  60  75 NE6       30.22S
ISLIP          CLEAR     67  60  78 E9        30.21R
SHIRLEY        CLEAR     67  60  78 VRB5      30.23R
WESTHAMPTON    CLEAR     67  60  78 NE8       30.24R
MONTAUK POINT    N/A     67  62  84 NE6       30.24S
$$

NYZ052-065-067-050600-
HUDSON VALLEY

CITY           SKY/WX    TMP DP  RH WIND       PRES   REMARKS
WHITE PLAINS   PTCLDY    69  61  75 E8        30.23R
NEWBURGH       PTCLDY    68  64  88 VRB6      30.24S
MONTGOMERY     CLOUDY    70  64  81 CALM      30.23R
POUGHKEEPSIE   MOCLDY    68  62  81 N5        30.22R
ALBANY         PTCLDY    66  58  75 CALM      30.23R
$$

NJZ001-105-106-008-010-013-015-019>022-104-050600-
NEW JERSEY

CITY           SKY/WX    TMP DP  RH WIND       PRES   REMARKS
NEWARK/LIBERTY PTCLDY    72  63  73 E7        30.21S
TETERBORO      CLEAR     72  60  66 E9        30.21S
CALDWELL       CLEAR     67  62  84 CALM      30.22S
MORRISTOWN     CLEAR     63  59  88 CALM      30.21S
SOMERVILLE     MOCLDY    70  64  81 E3        30.20S
SUSSEX         MOCLDY    64  62  93 CALM      30.23S FOG
ANDOVER          N/A     64  64 100 CALM      30.23S
TRENTON        PTCLDY    69  64  84 E6        30.20S
MILLVILLE      CLOUDY    74  67  78 NE12      30.17S
ATLANTIC CITY  PTCLDY    73  66  78 E10       30.17R
WRIGHTSTOWN    MOCLDY    69  66  92 NE6       30.17R
TOMS RIVER     CLOUDY    72  64  78 NE10      30.20S
BELMAR         CLOUDY    72  61  68 E9        30.20S
$$

PAZ047>061-062-071-050600-
EASTERN PENNSYLVANIA

CITY           SKY/WX    TMP DP  RH WIND       PRES   REMARKS
PHILADELPHIA   MOCLDY    73  65  75 E10       30.19S
ALLENTOWN      PTCLDY    71  63  75 SE6       30.21S
SCRANTON       PTCLDY    72  65  78 NE3       30.21S
$$

CTZ002-004>006-009-010-012-RIZ004-006-007-MAZ004-011-015-050600-
SOUTHERN NEW ENGLAND
 IN CT

CITY           SKY/WX    TMP DP  RH WIND       PRES   REMARKS
BRADLEY INTL   PTCLDY    63  54  72 N3        30.25S
HARTFORD       CLOUDY    67  54  63 E3        30.25S
DANBURY        MOCLDY    67  59  75 E7        30.26R
WTRBRY/OXFORD  MOCLDY    64  54  68 E5        30.27S
BRIDGEPORT     CLOUDY    70  60  70 NE12      30.24R
MERIDEN        MOCLDY    67  56  67 N3        30.25R
NEW HAVEN      PTCLDY    65  58  78 NE6       30.24S
CHESTER        NOT AVBL
GROTON         CLEAR     62  60  93 N8        30.24R
WILLIMANTIC    PTCLDY    61  56  83 N5        30.25S

 IN RI

CITY           SKY/WX    TMP DP  RH WIND       PRES   REMARKS
PROVIDENCE     CLEAR     60  58  92 NE6       30.25F
BLOCK ISLAND   MOCLDY    64  61  88 E12       30.23S
WESTERLY       CLEAR     61  58  90 NE3       30.25S

 IN MA

CITY           SKY/WX    TMP DP  RH WIND       PRES   REMARKS
BOSTON         CLEAR     62  57  83 N5        30.26S
WORCESTER      CLEAR     58  52  80 N6        30.28S
WESTFIELD      PTCLDY    62  58  86 CALM      30.26S
PROVINCETOWN     N/A     54  46  76 CALM      30.25S
NANTUCKET        N/A    N/A N/A N/A MISG        N/A
$$

ANZ330-335-338-340-345-350-353-355-050600-
COASTAL MARINE OBSERVATIONS


STATION/POSITION TIME  SKY/WX   TEMP    WIND        PRES    VSBY  WAVE
                                AIR SEA DIR/SP/G                  HT/PER
                 (UTC)          (F)     (DEG/KT/KT) (MB)    (MI)  (FT/S)
NY HARB ENTRANCE 0350            72 75   80/ 19/ 23 1021.6          6/ 6
4S FIRE IS       NOT AVBL
20S FIRE ISLAND  0350            72 75   70/ 21/ 25 1021.4          7/ 7
GREAT SOUTH BAY  0400            71 79   70/ 19/ 21   N/A
23SW MTP         0450            69 72   70/ 17/ 21 1022.3          6/ 6
HUDSON CANYON    NOT AVBL
KINGS POINT      0400            70 74   40/  2/  4 1022.6
EXECUTION ROCKS  0400            71     110/  8/ 12   N/A
CENTRAL LI SOUND NOT AVBL
EASTERN LI SOUND 0400            67 71   50/ 12/ 14   N/A
ROBBINS REEF     0400            72     100/  8/ 10 1021.9
$$


>>>>>>>>>>>>>>>>>>>>>>>>>>>> KEY <<<<<<<<<<<<<<<<<<<<<<<<<<<
>                                                          <
>     SKY/WX - SKY CONDITION/PRESENT WEATHER               <
>     TMP    - TEMPERATURE IN FAHRENHEIT                   <
>     DP     - DEWPOINT IN FAHRENHEIT                      <
>     RH     - RELATIVE HUMIDITY IN PERCENT                <
>     WIND   - DIRECTION AND SPEED IN MPH                  <
>     PRES   - MEAN SEA LEVEL PRESSURE IN INCHES OF HG     <
>     WCI    - WIND CHILL INDEX                            <
>     VSB    - VISIBILITY IN MILES                         <
>     HX     - HEAT INDEX                                  <
>     TC     - TEMPERATURE IN CELSIUS                      <
>     VRB    - VARIABLE WIND DIRECTION                     <
>                                                          <
>>>>>>>>>>>>>>>>>>>>>>>>>>>> KEY <<<<<<<<<<<<<<<<<<<<<<<<<<<




USA.gov is the U.S. government's official web portal to all federal, state and local government web resources and services.